SL-16 DEB, 43353

Orbit data source: Space-Track

SL-16 DEB, 43353 is space debris in LEO originally from a launch on Tue, 31 Oct 1995 UTC launched from the Tyuratam Missile And Space Complex (TTMTR). Debris objects in space refer to the collection of defunct objects orbiting the Earth. Examples of debris include non-operational satellites, rocket bodies, and fragments generated from explosions, collisions, or faulty payload assembly.

Loading next visibility...
SL-16 DEB details
Identifier
43353, 1995-058N
Orbit
LEO
Last TLE update13 hours ago
Origin
Flag of CISRVSN RF (CIS)
ManufacturerUnknown
MissionSpacecraft
Bus & MotorUnknown
MassUnknown
Launch date (UTC)
1995-10-31 (29 years ago)
Launch vehicleUnknown
Launch site
Tyuratam Missile And Space Complex (TTMTR)
Object type
Payload
Rocket body
Debris
Shape & HBRUnknown
Radar Cross SectionSmall (<0.1 m²)

Expand to show TLE details & history

TLE from 13 hours ago
0 SL-16 DEB
1 43353U 95058N   24361.37317006  .00020203  00000-0  52044-2 0  9992
2 43353  70.9953 231.2969 0022993 305.7046  54.1955 14.49897927577339
Epoch: 2024-12-26T08:57Z
Definitive object data (Epoch: 2024-12-26T08:57:21.893Z)
Latitude-0.00001°
Longitude1.60218°
Altitude718.888 km
Speed7.501 km/s
True Right ascension15h 25m 11s
True Declination0° 00' 00"
Sunlit
Object was in daylight at TLE epoch
Visualization TLE readout
Latitude-40.31203°
Longitude-162.66936°
Altitude738.476 km
Speed7.486 km/s
Apparent Right ascension06h 34m 51s
Apparent Declination-45° 09' 41"
Sunlit
Object is in daylight
Visualization observer readout
Local Sidereal Time20:57:25
Azimuth113.208° SE
Elevation-63.447°
Doppler factor1
Orbital elements
Apogee altitude740.203 km
Perigee altitude707.543 km
Semi-major axis7,102.01 km
Eccentricity0.0022993
Inclination70.9953°
RAAN231.2969°
Arg. of periapsis305.7046°
True anomaly54.40955°
Mean anomaly54.1955°
Eccentric anomaly54.30249°
Mean motion3.62636 °/min
BSTAR0.0052044
Orbital period99.27 mins
Loading maneuver chart data...
Loading historical data...
Loading historical data...
Loading historical data...
Loading historical data...
Loading historical data...
Loading historical data...
Loading historical data...

SL-16 DEB Visibility forecast

Observer location: undefined°, undefined

Span
Click to sort rows by Start time (UTC) header in descending order
Start Az.
Max El. time (UTC)
Max El. Az.
Max El.
End time (UTC)
End Az.
9 mins2024-12-27 02:03:24.497Z353.249° N2024-12-27 02:07:24.497Z48.678° ENE31.952°2024-12-27 02:12:24.497Z129.249° SE
6 mins2024-12-27 03:46:24.497Z298.137° NW2024-12-27 03:49:24.497Z251.602° W21.938°2024-12-27 03:52:24.497Z210.574° SW
7 mins2024-12-27 16:33:24.497Z182.508° SSW2024-12-27 16:36:24.497Z105.796° ESE41.328°2024-12-27 16:40:24.497Z32.101° NE
5 mins2024-12-27 18:16:24.497Z281.122° WNW2024-12-27 18:18:24.497Z309.095° NW16.562°2024-12-27 18:21:24.497Z346.931° N
|